Tracking 31011 objects as of 12-Jul-2025
HD Live streaming from Space Station
objects crossing your sky now

NOAA 17 DEB

Track NOAA 17 DEB now!
10-day predictions


NORAD ID: 48729
Int'l Code: 2002-032BP
Perigee: 698.7 km
Apogee: 713.2 km
Inclination: 98.5 °
Period: 98.7 minutes
Semi major axis: 7076 km
RCS: Unknown
Launch date: June 24, 2002
Source: United States (US)
Launch site: AIR FORCE WESTERN TEST RANGE (AFWTR)

Note: This is SATELLITE DEBRIS
Your satellite tracking list
Your tracking list is empty




NASA's NSSDC Master Catalog

Two Line Element Set (TLE):
1 48729U 02032BN  25191.55501202  .00004547  00000-0  99363-3 0  9998
2 48729  98.4613 130.3383 0010219 246.2659 113.7467 14.58256563224238
Source of the keplerian elements: AFSPC